Orbital Elements at Epoch 2459200.5 (2020-Dec-17.0) TDB
Reference: JPL 24 (heliocentric ecliptic J2000)
Element | Value | Uncertainty (1-sigma) | Units |
e | .1276796851973626 | 3.6529e-08 | |
a | 2.547313132568142 | 1.1634e-08 | au |
q | 2.222072993702734 | 9.4191e-08 | au |
i | 21.547093988031 | 4.4304e-06 | deg |
node | 206.6279626928246 | 1.1119e-05 | deg |
peri | 263.5718542063268 | 2.2174e-05 | deg |
M | 277.4231128893127 | 2.151e-05 | deg |
tp | 2459541.126110346356 (2021-Nov-22.62611035) | 8.9707e-05 | TDB |
period | 1484.984527938419 4.07 | 1.0173e-05 2.785e-08 | d yr |
n | .242426768243695 | 1.6607e-09 | deg/d |
Q | 2.872553271433549 | 1.3119e-08 | au |
|
| | Orbit Determination Parameters
Additional Information
|